K0BL Weather Reports


time (UTC)temp
F
wind
direction
speed
knots
gust
knots
rain 1hr
in
rain 24hr
in
rain mn
in
humidity
%
barometer
mb
20260507180438 65 359 4.3 8.7 0.00 0.00 0.00 50 1009.5
20260507175939 66 7 4.3 5.2 0.00 0.00 0.00 49 1009.6
20260507175439 67 357 3.5 7.8 0.00 0.00 0.00 49 1009.6
20260507174939 67 91 1.7 7.8 0.00 0.00 0.00 48 1009.8
20260507173939 65 283 2.6 7.0 0.00 0.00 0.00 48 1010.0
20260507172939 64 338 3.5 10.4 0.00 0.00 0.00 51 1010.2
20260507172439 65 349 3.5 10.4 0.00 0.00 0.00 51 1010.2
20260507171939 65 118 2.6 10.4 0.00 0.00 0.00 51 1010.3
20260507171439 64 16 2.6 7.8 0.00 0.00 0.00 50 1010.4
20260507165936 62 268 4.3 9.6 0.00 0.00 0.00 53 1010.7
20260507165436 61 318 4.3 9.6 0.00 0.00 0.00 54 1010.8
20260507164934 61 243 4.3 10.4 0.00 0.00 0.00 53 1010.8
20260507164433 61 214 6.1 14.8 0.00 0.00 0.00 53 1011.0
20260507163934 61 253 6.1 14.8 0.00 0.00 0.00 54 1010.9
20260507163434 62 348 4.3 12.2 0.00 0.00 0.00 52 1011.0
20260507162934 61 239 3.5 9.6 0.00 0.00 0.00 54 1011.0
20260507162435 61 259 5.2 12.2 0.00 0.00 0.00 54 1011.1
20260507161934 60 144 6.1 12.2 0.00 0.00 0.00 55 1011.2
20260507161434 59 98 6.1 13.9 0.00 0.00 0.00 56 1011.2
20260507160934 60 277 5.2 13.9 0.00 0.00 0.00 56 1011.2
20260507155934 59 56 5.2 9.6 0.00 0.00 0.00 57 1011.5
20260507155434 59 289 4.3 11.3 0.00 0.00 0.00 58 1011.6
20260507154934 59 340 5.2 11.3 0.00 0.00 0.00 57 1011.7
20260507154431 58 299 5.2 11.3 0.00 0.00 0.00 57 1011.7
20260507153926 58 265 3.5 9.6 0.00 0.00 0.00 59 1011.7
20260507153426 57 13 3.5 6.1 0.00 0.00 0.00 59 1011.6
20260507152922 56 318 3.5 6.1 0.00 0.00 0.00 60 1011.6
20260507152422 56 309 3.5 6.1 0.00 0.00 0.00 60 1011.5
20260507151922 56 101 3.5 5.2 0.00 0.00 0.00 61 1011.4
20260507151423 56 354 3.5 7.0 0.00 0.00 0.00 61 1011.5
20260507150422 57 243 3.5 7.0 0.00 0.00 0.00 60 1011.5
20260507145923 57 70 3.5 7.0 0.00 0.00 0.00 60 1011.6
20260507145423 57 273 3.5 7.0 0.00 0.00 0.00 60 1011.5
20260507144923 56 246 3.5 7.0 0.00 0.00 0.00 60 1011.5
20260507143923 56 324 3.5 6.1 0.00 0.00 0.00 61 1011.7
20260507143423 56 21 3.5 7.0 0.00 0.00 0.00 61 1011.5
20260507142924 56 230 3.5 7.0 0.00 0.00 0.00 61 1011.3
20260507141921 56 221 3.5 5.2 0.00 0.00 0.00 61 1011.3
20260507141421 56 80 3.5 7.0 0.00 0.00 0.00 61 1011.3
20260507140918 56 226 3.5 7.0 0.00 0.00 0.00 60 1011.2
20260507140418 56 37 3.5 7.8 0.00 0.00 0.00 60 1011.3
20260507135918 55 232 3.5 7.8 0.00 0.00 0.00 60 1011.3
20260507135417 55 251 3.5 7.0 0.00 0.00 0.00 61 1011.3
20260507134918 54 247 3.5 11.3 0.00 0.00 0.00 62 1011.2
20260507134418 54 223 3.5 11.3 0.00 0.00 0.00 61 1011.3
20260507133418 53 241 2.6 6.1 0.00 0.00 0.00 61 1011.3
20260507132918 52 298 2.6 6.1 0.00 0.00 0.00 62 1011.4
20260507131916 51 32 2.6 5.2 0.00 0.00 0.00 62 1011.4
20260507131416 51 195 2.6 5.2 0.00 0.00 0.00 62 1011.3
20260507130913 51 220 2.6 5.2 0.00 0.00 0.00 62 1011.3
20260507125410 49 221 1.7 6.1 0.00 0.00 0.00 63 1011.3
20260507124910 49 244 1.7 4.3 0.00 0.00 0.00 64 1011.2
20260507124410 48 88 1.7 4.3 0.00 0.00 0.00 64 1011.3
20260507123910 48 199 1.7 3.5 0.00 0.00 0.00 64 1011.3
20260507123410 47 203 1.7 4.3 0.00 0.00 0.00 65 1011.3
20260507122910 47 221 1.7 5.2 0.00 0.00 0.00 65 1011.3
20260507121910 46 226 1.7 4.3 0.00 0.00 0.00 65 1011.3
20260507121411 46 231 1.7 4.3 0.00 0.00 0.00 66 1011.3
20260507120411 45 243 1.7 4.3 0.00 0.00 0.00 68 1011.3
20260507115907 44 158 1.7 3.5 0.00 0.00 0.00 68 1011.3
20260507115407 44 223 1.7 4.3 0.00 0.00 0.00 69 1011.3
20260507114907 44 225 1.7 4.3 0.00 0.00 0.00 68 1011.3
20260507114407 43 180 0.9 3.5 0.00 0.00 0.00 69 1011.3
20260507113907 43 213 0.9 3.5 0.00 0.00 0.00 70 1011.3
20260507113407 43 181 0.9 2.6 0.00 0.00 0.00 70 1011.2
20260507112908 43 175 0.9 2.6 0.00 0.00 0.00 69 1011.3
20260507112408 43 186 0.0 2.6 0.00 0.00 0.00 70 1011.3
20260507111905 42 0 0.0 1.7 0.00 0.00 0.00 72 1011.2
20260507111405 42 0 0.9 1.7 0.00 0.00 0.00 71 1011.1
20260507110904 42 94 0.9 1.7 0.00 0.00 0.00 73 1011.2
20260507110405 42 158 0.0 1.7 0.00 0.00 0.00 73 1011.3
20260507105905 42 0 0.0 1.7 0.00 0.00 0.00 73 1011.3
20260507105404 42 0 0.0 1.7 0.00 0.00 0.00 73 1011.5
20260507104903 42 0 0.0 1.7 0.00 0.00 0.00 73 1011.6
20260507104404 42 60 0.9 3.5 0.00 0.00 0.00 73 1011.7
20260507103902 42 84 0.9 3.5 0.00 0.00 0.00 72 1011.7
20260507103402 42 0 0.9 3.5 0.00 0.00 0.00 73 1011.8
20260507102902 41 0 0.9 3.5 0.00 0.00 0.00 76 1011.8
20260507102400 40 84 0.9 3.5 0.00 0.00 0.00 78 1011.9
20260507101859 39 198 0.0 2.6 0.00 0.00 0.00 81 1012.0
20260507101359 39 0 0.0 1.7 0.00 0.00 0.00 83 1012.1
20260507100856 38 0 0.0 1.7 0.00 0.00 0.00 83 1012.1
20260507100354 38 60 0.0 1.7 0.00 0.00 0.00 83 1012.2
20260507095354 38 0 0.9 1.7 0.00 0.00 0.00 85 1012.2
20260507094354 37 107 0.0 1.7 0.00 0.00 0.00 86 1012.3
20260507093855 37 70 0.9 1.7 0.00 0.00 0.00 86 1012.3
20260507093355 37 108 0.9 1.7 0.00 0.00 0.00 86 1012.3
20260507092851 37 129 0.9 1.7 0.00 0.00 0.00 87 1012.4
20260507092351 37 93 0.9 1.7 0.00 0.00 0.00 87 1012.4
20260507091848 37 104 0.9 1.7 0.00 0.00 0.00 87 1012.4
20260507091346 36 127 0.0 1.7 0.00 0.00 0.00 87 1012.4
20260507090345 37 0 0.0 1.7 0.00 0.00 0.00 87 1012.4
20260507085843 37 0 0.0 1.7 0.00 0.00 0.00 86 1012.5
20260507085340 37 92 0.0 1.7 0.00 0.00 0.00 86 1012.4
20260507084839 37 0 0.0 1.7 0.00 0.00 0.00 86 1012.4
20260507084339 37 0 0.0 1.7 0.00 0.00 0.00 87 1012.5
20260507083840 37 0 0.0 1.7 0.00 0.00 0.00 87 1012.5
20260507083340 37 0 0.0 1.7 0.00 0.00 0.00 87 1012.6
20260507082840 37 0 0.0 2.6 0.00 0.00 0.00 87 1012.6
20260507082340 37 84 0.9 2.6 0.00 0.00 0.00 88 1012.6
20260507080837 37 0 0.0 1.7 0.00 0.00 0.00 88 1012.6
20260507080334 37 107 0.9 1.7 0.00 0.00 0.00 89 1012.7
20260507075834 36 98 0.9 1.7 0.00 0.00 0.00 90 1012.7
20260507075332 36 126 0.9 1.7 0.00 0.00 0.00 90 1012.7
20260507074825 36 0 0.0 1.7 0.00 0.00 0.00 91 1012.8
20260507074322 36 0 0.0 0.9 0.00 0.00 0.00 91 1012.9
20260507073819 36 0 0.0 0.9 0.00 0.00 0.00 90 1012.9
20260507073319 36 0 0.0 0.9 0.00 0.00 0.00 89 1013.0
20260507072820 37 0 0.0 1.7 0.00 0.00 0.00 89 1013.0
20260507072319 37 0 0.0 1.7 0.00 0.00 0.00 88 1013.0
20260507071818 37 108 0.0 1.7 0.00 0.00 0.00 89 1013.1
20260507071317 37 0 0.0 1.7 0.00 0.00 0.00 89 1013.1
20260507070817 37 0 0.0 1.7 0.00 0.00 0.00 89 1013.2
20260507070317 37 0 0.0 1.7 0.00 0.00 0.00 88 1013.3
20260507065817 37 0 0.0 0.9 0.00 0.00 0.00 88 1013.3
20260507065319 38 0 0.0 0.9 0.00 0.00 0.00 87 1013.4
20260507064315 38 113 0.0 1.7 0.00 0.00 0.00 87 1013.5
20260507063815 38 0 0.0 1.7 0.00 0.00 0.00 87 1013.5
20260507062812 37 0 0.0 1.7 0.00 0.00 0.00 88 1013.5
20260507062308 38 163 0.0 1.7 0.00 0.00 0.00 88 1013.5
20260507061808 38 0 0.0 1.7 0.00 0.00 0.00 88 1013.6
20260507061308 38 113 0.0 0.9 0.00 0.00 0.00 87 1013.6
20260507060809 38 118 0.0 0.9 0.00 0.00 0.00 87 1013.7
20260507060309 38 0 0.0 1.7 0.00 0.00 0.00 86 1013.7
20260507055809 38 0 0.0 1.7 0.00 0.00 0.00 86 1013.8
20260507055309 38 193 0.0 1.7 0.00 0.00 0.00 85 1013.9
20260507054808 39 0 0.0 0.9 0.00 0.00 0.00 85 1013.9
20260507054308 39 0 0.0 0.9 0.00 0.00 0.00 84 1013.9
20260507053808 39 224 0.0 1.7 0.00 0.00 0.00 84 1013.9
20260507053308 39 0 0.0 1.7 0.00 0.00 0.00 84 1013.9
20260507052808 39 193 0.0 0.9 0.00 0.00 0.00 82 1013.8
20260507052307 39 0 0.0 0.9 0.00 0.00 0.00 82 1013.9
20260507051807 40 0 0.0 0.9 0.00 0.00 0.00 81 1013.9
20260507051307 40 0 0.0 0.9 0.00 0.00 0.00 81 1013.9
20260507050803 40 0 0.0 1.7 0.00 0.00 0.00 81 1014.0
20260507050304 40 213 0.9 1.7 0.00 0.00 0.00 80 1014.0
20260507045801 40 198 0.9 1.7 0.00 0.00 0.00 81 1014.0
20260507044801 41 222 0.0 1.7 0.00 0.00 0.00 79 1014.0
20260507044302 40 178 0.9 1.7 0.00 0.00 0.00 80 1014.0
20260507043802 40 207 0.0 1.7 0.00 0.00 0.00 78 1014.0
20260507042801 41 0 0.0 1.7 0.00 0.00 0.00 79 1014.1
20260507041758 41 0 0.0 1.7 0.00 0.00 0.00 77 1014.1
20260507041255 41 219 0.9 1.7 0.00 0.00 0.00 77 1014.1
20260507040256 41 256 0.0 0.9 0.00 0.00 0.00 74 1014.2
20260507035756 42 0 0.0 0.9 0.00 0.00 0.00 74 1014.2
20260507035256 42 0 0.0 0.9 0.00 0.00 0.00 73 1014.2
20260507033753 42 0 0.0 0.9 0.00 0.00 0.00 75 1014.1
20260507032750 42 0 0.0 0.9 0.00 0.00 0.00 76 1014.2
20260507032250 43 0 0.0 0.9 0.00 0.00 0.00 76 1014.2
20260507031250 43 0 0.9 1.7 0.00 0.00 0.00 76 1014.2
20260507030750 43 221 0.9 1.7 0.00 0.00 0.00 75 1014.2
20260507030251 44 238 0.9 1.7 0.00 0.00 0.00 74 1014.2
20260507025751 44 245 0.9 1.7 0.00 0.00 0.00 73 1014.1
20260507024748 44 219 0.9 1.7 0.00 0.00 0.00 72 1014.1
20260507024249 44 206 0.9 1.7 0.00 0.00 0.00 72 1014.0
20260507023749 45 235 0.9 1.7 0.00 0.00 0.00 71 1014.0
20260507023249 45 0 0.9 1.7 0.00 0.00 0.00 70 1014.0
20260507022750 46 0 0.0 1.7 0.00 0.00 0.00 69 1014.1
20260507022249 46 0 0.9 1.7 0.00 0.00 0.00 66 1014.0
20260507021749 46 213 0.9 1.7 0.00 0.00 0.00 65 1014.0
20260507021248 47 252 0.9 1.7 0.00 0.00 0.00 63 1014.0
20260507020748 47 216 0.9 1.7 0.00 0.00 0.00 62 1013.9
20260507015747 48 0 0.9 1.7 0.00 0.00 0.00 57 1013.8
20260507015245 49 229 0.9 1.7 0.00 0.00 0.00 56 1013.8
20260507014745 49 226 0.9 1.7 0.00 0.00 0.00 55 1013.8
20260507013742 51 165 0.9 2.6 0.00 0.00 0.00 51 1013.7
20260507013242 51 227 1.7 2.6 0.00 0.00 0.00 49 1013.7
20260507011739 53 0 0.9 2.6 0.00 0.00 0.00 43 1013.6
20260507011240 54 244 1.7 5.2 0.00 0.00 0.00 42 1013.6
20260507010741 54 241 2.6 6.1 0.00 0.00 0.00 41 1013.5
20260507010240 54 227 3.5 7.0 0.00 0.00 0.00 41 1013.5
20260507005740 55 226 3.5 7.8 0.00 0.00 0.00 40 1013.5
20260507005238 55 226 3.5 7.8 0.00 0.00 0.00 39 1013.5
20260507004738 55 222 3.5 7.8 0.00 0.00 0.00 39 1013.5
20260507004235 55 222 3.5 7.8 0.00 0.00 0.00 38 1013.5
20260507003734 56 231 3.5 8.7 0.00 0.00 0.00 38 1013.6
20260507002735 56 231 4.3 8.7 0.00 0.00 0.00 37 1013.5
20260507002235 56 224 4.3 7.8 0.00 0.00 0.00 36 1013.4
20260507001735 57 226 4.3 8.7 0.00 0.00 0.00 36 1013.5
20260507001235 57 221 4.3 9.6 0.00 0.00 0.00 36 1013.5
20260507000735 57 227 4.3 9.6 0.00 0.00 0.00 36 1013.6
20260507000235 57 225 4.3 9.6 0.00 0.00 0.00 36 1013.6
20260506235735 57 229 4.3 10.4 0.00 0.00 0.00 36 1013.6
20260506235235 58 231 4.3 10.4 0.00 0.00 0.00 36 1013.6
20260506234736 58 226 4.3 8.7 0.00 0.00 0.00 36 1013.7
20260506234235 58 227 4.3 7.8 0.00 0.00 0.00 36 1013.7
20260506233733 58 47 4.3 7.8 0.00 0.00 0.00 36 1013.7
20260506233229 58 233 4.3 7.8 0.00 0.00 0.00 36 1013.7
20260506232729 58 225 4.3 8.7 0.00 0.00 0.00 36 1013.8
20260506231730 57 233 4.3 7.8 0.00 0.00 0.00 37 1013.8
20260506231230 57 227 4.3 9.6 0.00 0.00 0.00 36 1013.9
20260506230730 58 228 4.3 9.6 0.00 0.00 0.00 36 1013.9
20260506230230 58 231 4.3 7.8 0.00 0.00 0.00 37 1013.8
20260506225730 58 235 4.3 8.7 0.00 0.00 0.00 38 1013.9
20260506225230 57 231 5.2 10.4 0.00 0.00 0.00 37 1013.9
20260506224230 57 234 6.1 11.3 0.00 0.00 0.00 37 1014.0
20260506223230 57 241 6.1 11.3 0.00 0.00 0.00 37 1014.0
20260506222728 57 275 6.1 9.6 0.00 0.00 0.00 38 1014.1
20260506222224 57 242 6.1 10.4 0.00 0.00 0.00 38 1014.0
20260506221724 57 237 6.1 10.4 0.00 0.00 0.00 38 1014.1
20260506221225 58 253 6.1 9.6 0.00 0.00 0.00 36 1014.1
20260506220724 57 244 6.1 9.6 0.00 0.00 0.00 38 1014.0
20260506220227 57 244 6.1 9.6 0.00 0.00 0.00 38 1014.1
20260506215727 57 250 6.1 9.6 0.00 0.00 0.00 38 1014.0
20260506215226 57 249 6.1 9.6 0.00 0.00 0.00 38 1014.1
20260506214726 56 255 6.1 10.4 0.00 0.00 0.00 39 1014.1
20260506214226 56 243 6.1 10.4 0.00 0.00 0.00 39 1014.2
20260506213726 56 249 6.1 10.4 0.00 0.00 0.00 39 1014.2
20260506213227 56 247 6.1 9.6 0.00 0.00 0.00 40 1014.3
20260506212726 56 257 6.1 9.6 0.00 0.00 0.00 39 1014.3
20260506212225 56 248 6.1 11.3 0.00 0.00 0.00 39 1014.3
20260506211725 56 252 7.0 11.3 0.00 0.00 0.00 39 1014.3
20260506211224 56 253 7.8 10.4 0.00 0.00 0.00 39 1014.4
20260506210719 56 272 7.0 11.3 0.00 0.00 0.00 39 1014.4
20260506210220 56 269 7.0 11.3 0.00 0.00 0.00 39 1014.5
20260506205718 56 254 7.0 11.3 0.00 0.00 0.00 40 1014.5
20260506205218 56 259 7.0 11.3 0.00 0.00 0.00 39 1014.6
20260506204218 57 253 7.0 11.3 0.00 0.00 0.00 39 1014.7
20260506203718 56 252 7.0 10.4 0.00 0.00 0.00 40 1014.6
20260506203219 56 256 7.0 10.4 0.00 0.00 0.00 40 1014.8
20260506202720 56 255 7.8 11.3 0.00 0.00 0.00 40 1014.7
20260506202218 56 254 7.8 11.3 0.00 0.00 0.00 40 1014.7
20260506201718 56 266 7.0 11.3 0.00 0.00 0.00 40 1014.8
20260506201219 56 249 7.0 10.4 0.00 0.00 0.00 40 1014.8
20260506200718 56 274 7.0 11.3 0.00 0.00 0.00 39 1014.9
20260506200211 56 261 7.8 11.3 0.00 0.00 0.00 40 1014.9
20260506195209 56 240 7.8 10.4 0.00 0.00 0.00 40 1014.9
20260506194707 56 286 7.8 10.4 0.00 0.00 0.00 39 1015.1
20260506194202 55 270 7.0 9.6 0.00 0.00 0.00 40 1015.1
20260506193703 56 296 6.1 9.6 0.00 0.00 0.00 40 1015.2
20260506193203 56 275 5.2 9.6 0.00 0.00 0.00 41 1015.1
20260506192703 57 277 5.2 9.6 0.00 0.00 0.00 40 1014.9
20260506192203 57 235 5.2 10.4 0.00 0.00 0.00 40 1014.9
20260506191704 57 231 5.2 13.0 0.00 0.00 0.00 40 1014.9
20260506191202 57 256 5.2 13.0 0.00 0.00 0.00 40 1015.1
20260506190703 57 306 5.2 13.0 0.00 0.00 0.00 39 1015.1
20260506190203 56 240 4.3 13.0 0.00 0.00 0.00 41 1015.1
20260506185704 56 30 5.2 13.0 0.00 0.00 0.00 39 1014.8
20260506185204 57 311 7.0 22.6 0.00 0.00 0.00 39 1015.1
20260506184703 57 276 6.1 22.6 0.00 0.00 0.00 39 1014.9
20260506184203 57 274 5.2 10.4 0.00 0.00 0.00 40 1014.9
20260506183700 56 310 5.2 11.3 0.00 0.00 0.00 40 1015.1
20260506183158 56 2 5.2 11.3 0.00 0.00 0.00 40 1015.1
20260506182658 56 257 7.0 12.2 0.00 0.00 0.00 40 1015.2
20260506182158 56 277 7.0 12.2 0.00 0.00 0.00 39 1015.2
20260506181658 56 31 7.0 12.2 0.00 0.00 0.00 39 1015.2
20260506181158 56 276 7.0 14.8 0.00 0.00 0.00 40 1015.3
20260506180658 55 297 6.1 14.8 0.00 0.00 0.00 40 1015.4